Location: *
(48.8667°N, 2.3331°E)
Time: 18:51:19
(UTC+00:00)

Cosmos 1606 Rocket - Pass Details

Date: 09 April 2020
Orbit: 602 x 633 km, 82.5° (Epoch: 02 June)

Event Time Altitude Azimuth Distance (km) Brightness Sun altitude
Rises 19:26:18 0° 191° (S) 2,897 6.9 -9.0°
Reaches altitude 10° 19:28:31 10° 192° (SSW) 1,999 6.1 -9.3°
Maximum altitude 19:32:57 80° 280° (W) 647 3.7 -10.0°
Drops below altitude 10° 19:37:28 10° 8° (N) 2,028 6.4 -10.6°
Sets 19:39:44 0° 9° (N) 2,942 7.3 -11.0°
